W7OWO-1 Weather Reports


time (UTC)temp
C
wind
direction
speed
KPH
gust
KPH
rain 1hr
cm
rain 24hr
cm
rain mn
cm
humidity
%
barometer
mb
20260503200004 30 62 3.2 8.0 0.00 0.00 0.00 40 1009.6
20260503195403 29 37 3.2 8.0 0.00 0.00 0.00 41 1009.7
20260503194503 29 42 3.2 6.4 0.00 0.00 0.00 44 1009.8
20260503193624 28 38 4.8 12.9 0.00 0.00 0.00 42 1009.9
20260503192703 28 106 3.2 8.0 0.00 0.00 0.00 49 1009.9
20260503191803 28 73 6.4 11.3 0.00 0.00 0.00 43 1010.0
20260503190924 28 44 4.8 9.7 0.00 0.00 0.00 47 1010.1
20260503190003 27 70 4.8 9.7 0.00 0.00 0.00 47 1010.3
20260503185403 27 58 4.8 11.3 0.00 0.00 0.00 48 1010.3
20260503184503 27 25 1.6 4.8 0.00 0.00 0.00 53 1010.4
20260503183603 27 41 4.8 8.0 0.00 0.00 0.00 52 1010.5
20260503182703 27 31 3.2 9.7 0.00 0.00 0.00 48 1010.5
20260503181803 26 32 3.2 6.4 0.00 0.00 0.00 54 1010.6
20260503180903 26 54 4.8 8.0 0.00 0.00 0.00 53 1010.6
20260503180003 26 81 3.2 8.0 0.00 0.00 0.00 53 1010.6
20260503175403 25 81 3.2 6.4 0.00 0.00 0.00 56 1010.7
20260503174503 25 321 1.6 3.2 0.00 0.00 0.00 57 1010.8
20260503173603 25 345 1.6 4.8 0.00 0.00 0.00 59 1010.8
20260503172703 24 133 1.6 3.2 0.00 0.00 0.00 58 1010.9
20260503171824 24 234 1.6 3.2 0.00 0.00 0.00 61 1011.0
20260503170903 23 318 1.6 4.8 0.00 0.00 0.00 67 1010.9
20260503150903 15 83 1.6 3.2 0.00 0.03 0.00 93 1011.6
20260503130903 10 259 0.0 1.6 0.00 0.23 0.00 100 1011.1
20260503080903 12 277 1.6 3.2 0.00 0.23 0.00 98 1012.2
20260503072703 12 237 1.6 4.8 0.00 0.23 0.00 97 1012.3
20260503071803 12 74 1.6 3.2 0.00 0.23 0.00 96 1012.1
20260503070903 12 240 0.0 1.6 0.00 0.23 0.00 96 1012.1
20260503054503 15 254 1.6 4.8 0.00 0.23 0.23 89 1012.2
20260503053603 16 273 1.6 3.2 0.00 0.23 0.23 88 1012.3
20260503052703 16 284 1.6 3.2 0.00 0.23 0.23 88 1012.2
20260503051803 16 252 3.2 8.0 0.00 0.23 0.23 88 1012.3
20260503050903 16 183 1.6 3.2 0.00 0.23 0.23 87 1012.3
20260503050024 16 178 0.0 3.2 0.00 0.23 0.23 86 1012.0
20260503045403 16 190 1.6 3.2 0.00 0.23 0.23 85 1011.8
20260503044504 17 233 3.2 6.4 0.00 0.23 0.23 84 1011.7
20260503043603 17 243 4.8 11.3 0.00 0.23 0.23 83 1011.8
20260503042703 17 269 4.8 11.3 0.00 0.23 0.23 83 1011.7
20260503041824 16 253 1.6 6.4 0.00 0.23 0.23 84 1011.7
20260503040903 16 279 1.6 9.7 0.00 0.23 0.23 85 1011.6
20260503040003 16 266 1.6 4.8 0.00 0.23 0.23 85 1011.8
20260503035403 16 230 0.0 3.2 0.00 0.23 0.23 85 1011.8
20260503034503 16 207 0.0 3.2 0.00 0.23 0.23 84 1011.6
20260503033603 17 197 0.0 1.6 0.00 0.23 0.23 85 1011.6
20260503032703 17 240 1.6 6.4 0.00 0.23 0.23 84 1011.5
20260503031803 17 236 1.6 3.2 0.00 0.23 0.23 84 1011.5
20260503030903 17 279 3.2 4.8 0.00 0.23 0.23 83 1011.5
20260503030004 17 214 1.6 3.2 0.00 0.23 0.23 82 1011.5
20260503025403 17 296 1.6 3.2 0.00 0.23 0.23 81 1011.6
20260503024503 18 262 1.6 3.2 0.00 0.23 0.23 81 1011.8
20260503023603 18 263 0.0 3.2 0.00 0.23 0.23 80 1011.9
20260503022703 18 263 1.6 4.8 0.00 0.23 0.23 78 1012.3
20260503021824 18 78 1.6 4.8 0.00 0.23 0.23 77 1012.4
20260503020903 18 136 3.2 6.4 0.00 0.23 0.23 77 1012.5
20260503020024 18 109 4.8 14.5 0.00 0.23 0.23 78 1012.6
20260503015403 18 112 4.8 11.3 0.00 0.23 0.23 76 1012.4
20260503014503 19 216 3.2 8.0 0.00 0.23 0.23 77 1012.0
20260503013603 19 187 3.2 8.0 0.00 0.23 0.23 75 1011.6
20260503012703 20 180 1.6 4.8 0.00 0.23 0.23 74 1011.6
20260503011803 20 218 3.2 8.0 0.00 0.23 0.23 75 1011.6
20260503010903 20 198 6.4 16.1 0.00 0.23 0.23 75 1011.5
20260503010003 20 191 4.8 11.3 0.00 0.23 0.23 77 1011.5
20260503005403 20 185 4.8 9.7 0.00 0.23 0.23 75 1011.5
20260503004503 20 127 1.6 6.4 0.00 0.23 0.23 76 1011.3
20260503003603 20 109 1.6 3.2 0.00 0.23 0.23 79 1011.3
20260503002724 20 101 1.6 3.2 0.00 0.23 0.23 76 1011.2
20260503001803 20 224 1.6 6.4 0.00 0.23 0.23 75 1011.1
20260503000903 20 228 3.2 8.0 0.00 0.23 0.23 75 1011.2
20260503000003 20 203 1.6 4.8 0.00 0.23 0.23 74 1011.3
20260502235403 20 181 3.2 6.4 0.00 0.23 0.23 73 1011.3
20260502234503 20 185 1.6 4.8 0.00 0.23 0.23 73 1011.4
20260502233603 20 154 1.6 4.8 0.00 0.23 0.23 71 1011.6
20260502232703 21 197 4.8 6.4 0.00 0.23 0.23 71 1011.7
20260502231803 21 261 1.6 4.8 0.00 0.23 0.23 67 1011.8
20260502230903 21 276 1.6 3.2 0.00 0.23 0.23 69 1012.0
20260502230003 21 269 1.6 3.2 0.00 0.23 0.23 69 1012.1
20260502225403 21 299 1.6 3.2 0.00 0.23 0.23 71 1012.1
20260502224503 21 314 1.6 3.2 0.00 0.23 0.23 68 1012.2
20260502223603 21 351 1.6 4.8 0.00 0.23 0.23 69 1012.3
20260502222703 21 278 3.2 6.4 0.00 0.23 0.23 69 1012.5
20260502221803 20 288 4.8 8.0 0.00 0.23 0.23 69 1012.6
20260502220903 20 60 4.8 8.0 0.00 0.23 0.23 77 1012.7
20260502220003 20 71 3.2 8.0 0.00 0.23 0.23 70 1012.9
20260502215403 20 170 3.2 6.4 0.00 0.23 0.23 72 1013.0
20260502214503 19 74 3.2 8.0 0.00 0.23 0.23 71 1013.1
20260502213603 18 76 1.6 3.2 0.00 0.23 0.23 76 1013.2
20260502212703 18 102 1.6 3.2 0.00 0.23 0.23 76 1013.3
20260502211803 18 159 1.6 4.8 0.00 0.23 0.23 76 1013.4
20260502210903 18 29 3.2 8.0 0.00 0.23 0.23 73 1013.5
20260502210003 18 115 3.2 4.8 0.00 0.23 0.23 75 1013.7
20260502205403 17 337 1.6 6.4 0.00 0.23 0.23 79 1013.7
20260502204503 17 276 3.2 9.7 0.00 0.23 0.23 77 1013.8
20260502203603 17 104 3.2 6.4 0.00 0.23 0.23 77 1014.0
20260502202703 17 13 3.2 6.4 0.00 0.23 0.23 81 1014.2
20260502201824 17 58 4.8 9.7 0.00 0.23 0.23 77 1014.4
20260502200903 16 224 1.6 9.7 0.00 0.23 0.23 79 1014.6